Location: site
(53.0000°N, 23.0500°E)
Time: 16:48:27
(UTC+01:00)

SAOCOM 1-A - Pass Details

Date: 18 January 2020
Orbit: 621 x 623 km, 97.9° (Epoch: 25 February)

Event Time Altitude Azimuth Distance (km) Brightness Sun altitude
Exits shadow 19:09:47 18° 340° (NNW) 1,562 ? -30.0°
Maximum altitude 19:11:57 26° 299° (WNW) 1,237 ? -30.3°
Drops below altitude 10° 19:15:33 10° 242° (WSW) 1,994 ? -30.8°
Sets 19:17:59 0° 230° (SW) 2,896 ? -31.2°
